Keokuk, IA

2:02 PM CDT on March 26, 2017 (GMT -0500)
Keokuk Municipal

Weather History for KEOK - April, 2014

Change the Weather History Date:

Wednesday, April 30, 2014

  Actual Average Record
Temperature  
Mean Temperature 45 °F -  
Max Temperature 51 °F 70 °F 89 °F (1942)
Min Temperature 39 °F 49 °F 37 °F (1956)
Degree Days  
Heating Degree Days 20    
Moisture  
Dew Point 38 °F    
Average Humidity 78    
Maximum Humidity 93    
Minimum Humidity 58    
Precipitation  
Precipitation 0.04 in - - ()
Sea Level Pressure  
Sea Level Pressure 29.79 in    
Wind  
Wind Speed 12 mph (West)    
Max Wind Speed 20 mph    
Max Gust Speed 25 mph    
Visibility 10 miles    
Events Rain    
Averages and records for this station are not official NWS values.
T = Trace of Precipitation, MM = Missing Value Source: NWS Daily Summary

Daily Weather History Graph

Daily Weather History Graph

Search for Another Location

Airport or City:

Trip Planner

Search our weather history database for the weather conditions in past years. The results will help you decide how hot, cold, wet, or windy it might be!

Date:

Astronomy

Apr. 30, 2014 Rise Set
Actual Time 6:06 AM CDT 8:00 PM CDT
Civil Twilight 5:36 AM CDT 8:29 PM CDT
Nautical Twilight 5:00 AM CDT 9:05 PM CDT
Astronomical Twilight 4:22 AM CDT 9:44 PM CDT
Moon 7:07 AM CDT (4/30) 9:39 PM CDT (4/30)
Length of Visible Light 14h 53m
Length of Day
13h 54m
New Moon, 2% of the Moon is Illuminated
Apr 30
New Moon
May 6
First Quarter
May 14
Full
May 21
Last Quarter
May 28
New

Hourly Weather History & Observations

Time (CDT) Temp. Windchill Dew Point Humidity Pressure Visibility Wind Dir Wind Speed Gust Speed Precip Events Conditions
12:15 AM 44.6 °F 38.4 °F 42.8 °F 93% 29.70 in 10.0 mi WNW 12.7 mph - N/A   Overcast
12:35 AM 44.6 °F 38.8 °F 41.0 °F 87% 29.71 in 10.0 mi NW 11.5 mph - N/A   Overcast
12:55 AM 42.8 °F 36.6 °F 39.2 °F 87% 29.72 in 10.0 mi West 11.5 mph - N/A   Overcast
1:15 AM 42.8 °F 36.2 °F 39.2 °F 87% 29.72 in 10.0 mi WNW 12.7 mph - N/A   Overcast
1:35 AM 42.8 °F 37.0 °F 39.2 °F 87% 29.72 in 10.0 mi WNW 10.4 mph 17.3 mph N/A   Overcast
1:55 AM 42.8 °F 36.6 °F 39.2 °F 87% 29.72 in 10.0 mi WNW 11.5 mph - N/A   Overcast
2:15 AM 41.0 °F 34.7 °F 37.4 °F 87% 29.72 in 10.0 mi NW 10.4 mph 17.3 mph N/A   Overcast
2:35 AM 41.0 °F 34.3 °F 37.4 °F 87% 29.73 in 10.0 mi WNW 11.5 mph 18.4 mph N/A   Overcast
2:55 AM 41.0 °F 34.3 °F 37.4 °F 87% 29.73 in 10.0 mi West 11.5 mph 17.3 mph N/A   Overcast
3:15 AM 41.0 °F 34.7 °F 35.6 °F 81% 29.74 in 10.0 mi West 10.4 mph 17.3 mph N/A   Overcast
3:35 AM 41.0 °F 35.2 °F 37.4 °F 87% 29.74 in 10.0 mi West 9.2 mph - N/A   Overcast
3:55 AM 41.0 °F 35.2 °F 37.4 °F 87% 29.74 in 10.0 mi West 9.2 mph - N/A   Overcast
4:15 AM 41.0 °F 34.7 °F 35.6 °F 81% 29.74 in 10.0 mi West 10.4 mph 17.3 mph N/A   Overcast
4:35 AM 41.0 °F 36.4 °F 37.4 °F 87% 29.75 in 10.0 mi West 6.9 mph - N/A   Overcast
4:55 AM 41.0 °F 34.7 °F 37.4 °F 87% 29.75 in 10.0 mi West 10.4 mph - N/A   Overcast
5:15 AM 41.0 °F 34.3 °F 35.6 °F 81% 29.76 in 10.0 mi West 11.5 mph - N/A   Overcast
5:35 AM 41.0 °F 34.3 °F 33.8 °F 76% 29.76 in 10.0 mi West 11.5 mph - N/A   Overcast
5:55 AM 41.0 °F 34.3 °F 33.8 °F 76% 29.77 in 10.0 mi West 11.5 mph - N/A   Overcast
6:15 AM 41.0 °F 35.8 °F 33.8 °F 76% 29.78 in 10.0 mi West 8.1 mph 15.0 mph N/A   Overcast
6:35 AM 41.0 °F 35.2 °F 33.8 °F 76% 29.78 in 10.0 mi West 9.2 mph - N/A   Overcast
6:55 AM 41.0 °F 35.2 °F 35.6 °F 81% 29.79 in 10.0 mi West 9.2 mph - N/A   Overcast
7:15 AM 39.2 °F 33.6 °F 35.6 °F 87% 29.79 in 8.0 mi WNW 8.1 mph - N/A   Overcast
7:35 AM 39.2 °F 34.2 °F 35.6 °F 87% 29.79 in 10.0 mi West 6.9 mph - N/A   Overcast
7:55 AM 41.0 °F 34.7 °F 35.6 °F 81% 29.79 in 10.0 mi West 10.4 mph - N/A   Overcast
8:15 AM 41.0 °F 35.8 °F 35.6 °F 81% 29.79 in 10.0 mi West 8.1 mph - N/A   Overcast
8:35 AM 41.0 °F 35.2 °F 35.6 °F 81% 29.79 in 10.0 mi West 9.2 mph - N/A   Overcast
8:55 AM 42.8 °F 36.6 °F 35.6 °F 76% 29.79 in 10.0 mi West 11.5 mph - N/A   Overcast
9:15 AM 42.8 °F 36.2 °F 35.6 °F 76% 29.79 in 10.0 mi West 12.7 mph 19.6 mph N/A   Overcast
9:35 AM 42.8 °F 36.2 °F 35.6 °F 76% 29.79 in 10.0 mi West 12.7 mph - N/A   Overcast
9:55 AM 42.8 °F 35.8 °F 35.6 °F 76% 29.80 in 10.0 mi West 13.8 mph 20.7 mph N/A   Overcast
10:15 AM 42.8 °F 37.5 °F 35.6 °F 76% 29.79 in 10.0 mi West 9.2 mph - N/A   Overcast
10:35 AM 44.6 °F 39.7 °F 37.4 °F 76% 29.79 in 10.0 mi West 9.2 mph - N/A   Overcast
10:55 AM 46.4 °F 39.5 °F 35.6 °F 66% 29.79 in 10.0 mi West 17.3 mph 24.2 mph N/A   Overcast
11:15 AM 48.2 °F - 37.4 °F 66% 29.80 in 10.0 mi West 16.1 mph 21.9 mph N/A   Overcast
11:35 AM 46.4 °F 40.4 °F 35.6 °F 66% 29.80 in 10.0 mi West 13.8 mph 21.9 mph N/A   Overcast
11:55 AM 48.2 °F - 39.2 °F 71% 29.81 in 10.0 mi West 17.3 mph - N/A   Overcast
12:15 PM 50.0 °F - 39.2 °F 66% 29.80 in 10.0 mi WNW 19.6 mph - N/A   Mostly Cloudy
12:35 PM 48.2 °F - 37.4 °F 66% 29.81 in 9.0 mi West 16.1 mph - N/A   Overcast
12:55 PM 48.2 °F - 41.0 °F 76% 29.80 in 9.0 mi West 11.5 mph - N/A   Overcast
1:15 PM 50.0 °F - 39.2 °F 66% 29.80 in 10.0 mi West 10.4 mph 18.4 mph N/A   Overcast
1:35 PM 51.8 °F - 39.2 °F 62% 29.80 in 10.0 mi West 18.4 mph - N/A   Overcast
1:55 PM 50.0 °F - 37.4 °F 62% 29.80 in 10.0 mi West 12.7 mph - N/A   Overcast
2:15 PM 48.2 °F - 39.2 °F 71% 29.81 in 9.0 mi West 18.4 mph 25.3 mph N/A   Overcast
2:55 PM 51.8 °F - 39.2 °F 62% 29.81 in 10.0 mi West 15.0 mph 21.9 mph N/A   Overcast
3:15 PM 51.8 °F - 39.2 °F 62% 29.80 in 10.0 mi WSW 12.7 mph 20.7 mph N/A   Overcast
3:35 PM 51.8 °F - 41.0 °F 67% 29.80 in 10.0 mi SW 16.1 mph - N/A   Mostly Cloudy
3:55 PM 50.0 °F - 41.0 °F 71% 29.80 in 10.0 mi West 16.1 mph - N/A   Mostly Cloudy
4:15 PM 51.8 °F - 39.2 °F 62% 29.80 in 10.0 mi West 17.3 mph - N/A   Overcast
4:35 PM 51.8 °F - 39.2 °F 62% 29.79 in 10.0 mi West 16.1 mph - N/A   Overcast
4:55 PM 51.8 °F - 37.4 °F 58% 29.80 in 10.0 mi West 19.6 mph - N/A   Overcast
5:15 PM 46.4 °F 42.4 °F 42.8 °F 87% 29.80 in 6.0 mi West 8.1 mph 15.0 mph N/A Rain Light Rain
5:35 PM 50.0 °F - 42.8 °F 76% 29.80 in 10.0 mi WSW 10.4 mph - N/A   Mostly Cloudy
5:55 PM 48.2 °F - 41.0 °F 76% 29.81 in 4.0 mi WSW 17.3 mph - 0.02 in Rain Rain
6:15 PM 48.2 °F - 39.2 °F 71% 29.81 in 10.0 mi West 12.7 mph 23.0 mph N/A   Overcast
6:35 PM 48.2 °F - 39.2 °F 71% 29.81 in 10.0 mi West 13.8 mph 19.6 mph N/A   Overcast
6:55 PM 48.2 °F - 41.0 °F 76% 29.82 in 10.0 mi WSW 12.7 mph - N/A   Overcast
7:15 PM 48.2 °F - 41.0 °F 76% 29.82 in 10.0 mi WSW 12.7 mph - N/A   Overcast
7:35 PM 48.2 °F - 41.0 °F 76% 29.82 in 10.0 mi WSW 10.4 mph - N/A   Overcast
7:55 PM 46.4 °F 41.9 °F 41.0 °F 81% 29.83 in 10.0 mi West 9.2 mph - N/A   Overcast
8:15 PM 46.4 °F 42.9 °F 41.0 °F 81% 29.83 in 10.0 mi West 6.9 mph - N/A   Overcast
8:35 PM 46.4 °F 42.9 °F 41.0 °F 81% 29.83 in 10.0 mi West 6.9 mph - N/A   Overcast
8:55 PM 44.6 °F 38.8 °F 41.0 °F 87% 29.84 in 5.0 mi West 11.5 mph 18.4 mph 0.02 in Rain Light Rain
9:15 PM 44.6 °F 39.2 °F 41.0 °F 87% 29.84 in 10.0 mi West 10.4 mph - N/A Rain Light Rain
9:35 PM 44.6 °F 39.2 °F 41.0 °F 87% 29.84 in 10.0 mi West 10.4 mph 17.3 mph N/A   Overcast
9:55 PM 42.8 °F 38.0 °F 41.0 °F 93% 29.84 in 10.0 mi WSW 8.1 mph - N/A   Overcast
10:15 PM 44.6 °F 40.2 °F 41.0 °F 87% 29.84 in 10.0 mi WSW 8.1 mph - N/A   Overcast
10:35 PM 44.6 °F 40.7 °F 41.0 °F 87% 29.84 in 10.0 mi WSW 6.9 mph - N/A   Overcast
10:55 PM 44.6 °F 39.2 °F 41.0 °F 87% 29.83 in 10.0 mi WSW 10.4 mph - N/A   Overcast
11:15 PM 44.6 °F 38.4 °F 41.0 °F 87% 29.82 in 10.0 mi WSW 12.7 mph - N/A   Overcast
11:35 PM 44.6 °F 38.8 °F 41.0 °F 87% 29.82 in 10.0 mi WSW 11.5 mph - N/A   Overcast
11:55 PM 44.6 °F 38.1 °F 41.0 °F 87% 29.82 in 10.0 mi WSW 13.8 mph 19.6 mph N/A   Overcast